Language: 


Des rapports , des résumés tant et plus, au choix de chacun....


Données Historiques de Météogheer
Journalier Rapport pour Décembre 18, 2017 Unitée:  Impériale    Métrique   Les deux
Suivant Jour »
Journalier Hebdomadaire Mensuel Annuel Sur mesure
  Max: Min: Moyenne:
Température: 49.5 °F 36.7 °F 44.6 °F
Point de rosée: 48.2 °F 37.4 °F 43.7 °F
Humidité: 98% 80% 94%
Vent: 13mph 0mph 4.1mph
Rafales: 14.5mph - -
Vent- - WNW
Pression: 30.4 in 30 in -
Pluie: 0.07 in    
Historical Graphs
 
 
Données tabulaires pour Décembre 18, 2017
Heure Température Point de rosée Pression Vent Vent Rafales Humidité Pluie Taux (Horaire) Conditions
00:00 42.6 °F 42.8 °F 30.1 in WSW 6.5 mph 7.4 mph 98% 0.05 in
00:02 42.8 °F 42.8 °F 30.1 in WSW 5.8 mph 8.7 mph 98% 0.05 in
00:07 43 °F 42.8 °F 30.1 in WSW 5.6 mph 8.7 mph 98% 0.06 in
00:12 43.2 °F 42.8 °F 30.1 in West 4.3 mph 7.4 mph 98% 0.06 in
00:16 43.3 °F 42.8 °F 30.1 in WSW 4.9 mph 7.4 mph 98% 0.06 in
00:21 43.7 °F 44.6 °F 30.1 in WSW 7.8 mph 8.5 mph 98% 0.06 in
00:23 43.7 °F 44.6 °F 30.1 in WSW 5.4 mph 8.5 mph 98% 0.06 in
00:28 44.1 °F 44.6 °F 30 in West 5.4 mph 8.7 mph 98% 0.06 in
00:30 44.2 °F 44.6 °F 30 in WNW 5.4 mph 8.7 mph 98% 0.06 in
00:35 44.6 °F 44.6 °F 30 in WSW 4.3 mph 8.7 mph 98% 0.06 in
00:40 44.6 °F 44.6 °F 30.1 in WSW 5.6 mph 7.8 mph 98% 0.06 in
00:45 44.6 °F 44.6 °F 30.1 in WSW 4.9 mph 7.2 mph 98% 0.06 in
00:48 44.6 °F 44.6 °F 30.1 in WSW 5.4 mph 7.2 mph 98% 0.06 in
00:53 44.6 °F 44.6 °F 30.1 in WSW 6.3 mph 8.1 mph 98% 0.05 in
00:55 44.4 °F 44.6 °F 30.1 in SW 7.6 mph 8.1 mph 98% 0.05 in
01:00 44.6 °F 44.6 °F 30 in WSW 7.4 mph 8.1 mph 98% 0.05 in
01:01 44.6 °F 44.6 °F 30 in WSW 5.8 mph 8.1 mph 98% 0.05 in
01:04 44.8 °F 44.6 °F 30 in WSW 6.3 mph 8.5 mph 98% 0.04 in
01:06 44.8 °F 44.6 °F 30 in WSW 7.4 mph 8.7 mph 98% 0.04 in
01:09 44.8 °F 44.6 °F 30 in WSW 5.6 mph 8.7 mph 98% 0.04 in
01:11 45.1 °F 44.6 °F 30 in West 7.8 mph 8.7 mph 98% 0.04 in
01:16 45.3 °F 44.6 °F 30 in WSW 6.3 mph 8.7 mph 98% 0.02 in
01:18 45.3 °F 44.6 °F 30 in WNW 5.4 mph 8.7 mph 98% 0.02 in
01:23 45.5 °F 46.4 °F 30 in West 2.9 mph 8.7 mph 98% 0.02 in
01:24 45.5 °F 46.4 °F 30 in WNW 4.9 mph 7.4 mph 98% 0.02 in
01:30 46.2 °F 46.4 °F 30 in NW 3.1 mph 8.1 mph 98% 0.01 in
01:31 46.2 °F 46.4 °F 30 in NNW 11 mph 11 mph 98% 0.01 in
01:36 47.1 °F 48.2 °F 30 in WNW 12.5 mph 13.2 mph 98% 0.01 in
01:41 47.5 °F 48.2 °F 30 in WNW 3.6 mph 13.2 mph 98% 0.01 in
01:43 47.5 °F 48.2 °F 30 in West 7.6 mph 13.2 mph 98% 0.01 in
01:48 47.8 °F 48.2 °F 30 in West 4.7 mph 9.6 mph 98% 0 in
01:50 47.8 °F 48.2 °F 30 in WNW 1.1 mph 9.6 mph 98% 0 in
01:55 47.8 °F 48.2 °F 30 in NW 5.8 mph 7.8 mph 98% 0 in
01:57 47.8 °F 48.2 °F 30 in West 2 mph 7.8 mph 98% 0 in
02:02 47.8 °F 48.2 °F 30 in NNW 4.9 mph 7.6 mph 98% 0 in
02:04 47.8 °F 48.2 °F 30 in West 2.5 mph 7.2 mph 98% 0 in
02:09 47.8 °F 48.2 °F 30 in NNW 4.5 mph 8.1 mph 98% 0 in
02:10 47.8 °F 48.2 °F 30 in SW 3.8 mph 8.1 mph 98% 0 in
02:11 47.8 °F 48.2 °F 30 in NNE 6.3 mph 8.1 mph 98% 0 in
02:16 48 °F 48.2 °F 30 in North 4.9 mph 8.1 mph 98% 0 in
02:20 48 °F 48.2 °F 30 in NNW 8.5 mph 8.5 mph 98% 0 in
02:25 48 °F 48.2 °F 30 in West 4.3 mph 8.5 mph 98% 0 in
02:27 48 °F 48.2 °F 30 in NNW 2.9 mph 8.5 mph 98% 0 in
02:29 48 °F 48.2 °F 30 in WNW 4.9 mph 8.7 mph 98% 0 in
02:34 48 °F 48.2 °F 30 in NW 2.5 mph 8.7 mph 98% 0 in
02:39 48 °F 48.2 °F 30 in NNW 3.4 mph 7.6 mph 98% 0 in
02:44 48 °F 48.2 °F 30.1 in NW 6.5 mph 10.5 mph 98% 0 in
02:45 48 °F 48.2 °F 30.1 in NNW 9.6 mph 10.5 mph 98% 0 in
02:46 48 °F 48.2 °F 30.1 in NNW 5.4 mph 10.5 mph 98% 0 in
02:50 47.8 °F 48.2 °F 30.1 in WNW 1.6 mph 10.5 mph 98% 0 in
02:55 47.8 °F 48.2 °F 30 in WNW 5.4 mph 9.4 mph 98% 0 in
02:56 47.8 °F 48.2 °F 30 in WNW 6.3 mph 9.4 mph 98% 0 in
03:01 47.8 °F 48.2 °F 30 in WNW 5.4 mph 10.3 mph 98% 0 in
03:06 47.7 °F 48.2 °F 30 in NW 4.7 mph 10.3 mph 98% 0 in
03:09 47.7 °F 48.2 °F 30 in West 6.5 mph 6.9 mph 98% 0 in
03:14 47.7 °F 48.2 °F 30.1 in NW 4.9 mph 7.8 mph 98% 0 in
03:15 47.7 °F 48.2 °F 30.1 in NNW 2.9 mph 7.8 mph 98% 0 in
03:19 47.5 °F 48.2 °F 30.1 in NNW 5.4 mph 7.8 mph 98% 0 in
03:20 47.5 °F 48.2 °F 30.1 in WNW 4.3 mph 7.8 mph 98% 0 in
03:25 47.5 °F 48.2 °F 30.1 in North 3.6 mph 8.5 mph 98% 0 in
03:27 47.3 °F 48.2 °F 30.1 in West 4 mph 8.5 mph 98% 0 in
03:32 47.3 °F 48.2 °F 30.1 in North 5.8 mph 8.5 mph 98% 0 in
03:35 47.3 °F 48.2 °F 30.1 in NW 7.4 mph 8.5 mph 98% 0 in
03:40 47.1 °F 48.2 °F 30.1 in North 4.3 mph 9.8 mph 98% 0 in
03:41 47.1 °F 48.2 °F 30.1 in NNW 5.4 mph 9.8 mph 98% 0 in
03:46 47.1 °F 48.2 °F 30.1 in NNE 2.2 mph 9.8 mph 98% 0 in
03:50 46.9 °F 48.2 °F 30.1 in NNE 2.5 mph 7.6 mph 98% 0 in
03:51 46.9 °F 48.2 °F 30.1 in Calm   7.2 mph 98% 0 in
03:56 46.8 °F 46.4 °F 30.1 in NNW 7.2 mph 7.6 mph 98% 0 in
04:01 46.6 °F 46.4 °F 30.1 in NNW 2.7 mph 7.8 mph 98% 0 in
04:02 46.6 °F 46.4 °F 30.1 in North 0.9 mph 7.8 mph 98% 0 in
04:07 46.6 °F 46.4 °F 30.1 in NNW 6 mph 9.2 mph 98% 0 in
04:08 46.4 °F 46.4 °F 30.1 in NNW 5.4 mph 9.2 mph 98% 0 in
04:13 46.4 °F 46.4 °F 30.1 in North 6 mph 9.2 mph 98% 0 in
04:20 46.2 °F 46.4 °F 30.1 in North 7.6 mph 8.5 mph 98% 0 in
04:21 46 °F 46.4 °F 30.1 in North 1.6 mph 8.5 mph 98% 0 in
04:26 46.2 °F 46.4 °F 30.1 in WNW 5.6 mph 9.6 mph 98% 0 in
04:28 46.2 °F 46.4 °F 30.1 in North 2.9 mph 9.6 mph 98% 0 in
04:33 46 °F 46.4 °F 30.1 in NNW 3.4 mph 9.6 mph 98% 0 in
04:34 46 °F 46.4 °F 30.1 in NNW 3.4 mph 9.6 mph 98% 0 in
04:38 45.9 °F 46.4 °F 30.1 in NNE 3.1 mph 6.3 mph 98% 0 in
04:40 45.9 °F 46.4 °F 30.1 in NW 3.8 mph 5.8 mph 98% 0 in
04:45 45.9 °F 46.4 °F 30.1 in WSW 6.5 mph 10.1 mph 98% 0 in
04:47 45.9 °F 46.4 °F 30.1 in North 6.3 mph 10.1 mph 98% 0 in
04:52 45.9 °F 46.4 °F 30.1 in NNW 8.7 mph 10.1 mph 98% 0 in
04:53 45.9 °F 46.4 °F 30.1 in NNW 3.6 mph 10.1 mph 98% 0 in
04:58 45.9 °F 46.4 °F 30.1 in North 6.3 mph 9.8 mph 98% 0 in
05:02 45.9 °F 46.4 °F 30.1 in NNW 6 mph 7.4 mph 98% 0 in
05:07 45.9 °F 46.4 °F 30.1 in North 6.3 mph 7.8 mph 98% 0 in
05:08 45.9 °F 46.4 °F 30.1 in North 4.7 mph 7.8 mph 98% 0 in
05:09 45.9 °F 46.4 °F 30.1 in North 3.4 mph 7.8 mph 98% 0 in
05:14 45.9 °F 46.4 °F 30.1 in NNW 4 mph 7.8 mph 98% 0 in
05:19 44.2 °F 42.8 °F 30.1 in NNW 6 mph 9.8 mph 97% 0 in
05:24 44.2 °F 42.8 °F 30.1 in NW 3.8 mph 9.8 mph 97% 0 in
05:29 44.2 °F 42.8 °F 30.1 in East 6.3 mph 9.6 mph 97% 0 in
05:31 44.2 °F 42.8 °F 30.1 in NNE 5.4 mph 9.6 mph 97% 0 in
05:32 44.2 °F 42.8 °F 30.1 in NNE 6 mph 9.6 mph 97% 0 in
05:37 44.2 °F 42.8 °F 30.1 in NNW 6.5 mph 9.6 mph 97% 0 in
05:41 44.2 °F 42.8 °F 30.1 in NNW 3.8 mph 7.8 mph 97% 0 in
05:42 44.2 °F 42.8 °F 30.1 in NNW 2 mph 6.9 mph 97% 0 in
05:47 44.2 °F 42.8 °F 30.1 in West 1.6 mph 9.6 mph 97% 0 in
05:48 44.2 °F 42.8 °F 30.1 in NNW 5.4 mph 9.6 mph 97% 0 in
05:50 44.2 °F 42.8 °F 30.1 in NNW 3.8 mph 9.6 mph 97% 0 in
05:54 44.2 °F 42.8 °F 30.1 in North 3.4 mph 9.6 mph 97% 0 in
05:57 44.2 °F 42.8 °F 30.1 in NNW 5.4 mph 7.4 mph 97% 0 in
05:59 44.2 °F 42.8 °F 30.1 in NNW 1.1 mph 7.4 mph 97% 0 in
06:04 44.2 °F 42.8 °F 30.1 in North 3.1 mph 6 mph 97% 0 in
06:10 44.2 °F 42.8 °F 30.1 in Calm   6 mph 97% 0 in
06:12 44.2 °F 42.8 °F 30.1 in West 1.1 mph 6 mph 97% 0 in
06:17 44.2 °F 42.8 °F 30.1 in NW 3.6 mph 5.8 mph 97% 0 in
06:23 44.2 °F 42.8 °F 30.1 in North 8.5 mph 13.4 mph 97% 0.01 in
06:24 43.2 °F 42.8 °F 30.1 in NNW 7.2 mph 13.4 mph 97% 0.01 in
06:27 43.2 °F 42.8 °F 30.1 in NNE 8.7 mph 13.4 mph 97% 0.01 in
06:32 43.2 °F 42.8 °F 30.1 in NNW 4 mph 9.6 mph 97% 0.01 in
06:37 43 °F 42.8 °F 30.1 in WNW 3.6 mph 8.1 mph 97% 0.01 in
06:42 42.8 °F 42.8 °F 30.2 in NNE 5.6 mph 8.5 mph 97% 0.01 in
06:43 42.8 °F 42.8 °F 30.2 in WNW 6.3 mph 8.5 mph 97% 0.01 in
06:48 42.8 °F 42.8 °F 30.2 in WNW 2.5 mph 8.5 mph 97% 0.01 in
06:53 42.6 °F 42.8 °F 30.2 in NW 3.1 mph 6.3 mph 97% 0.01 in
06:54 42.6 °F 42.8 °F 30.2 in North 8.7 mph 8.7 mph 98% 0.01 in
06:58 42.6 °F 42.8 °F 30.2 in NW 4.9 mph 8.7 mph 98% 0.01 in
07:03 42.6 °F 42.8 °F 30.2 in NNW 3.1 mph 8.7 mph 98% 0.01 in
07:08 42.6 °F 42.8 °F 30.2 in NNW 5.4 mph 7.8 mph 98% 0.01 in
07:10 42.4 °F 42.8 °F 30.2 in NNW 3.8 mph 7.8 mph 98% 0.01 in
07:14 42.6 °F 42.8 °F 30.2 in North 6.3 mph 10.7 mph 98% 0.01 in
07:17 42.6 °F 42.8 °F 30.2 in NNE 3.6 mph 10.7 mph 98% 0.01 in
07:22 42.6 °F 42.8 °F 30.2 in NNW 5.4 mph 10.7 mph 98% 0 in
07:27 43 °F 42.8 °F 30.2 in NNW 6 mph 10.1 mph 98% 0 in
07:29 43.2 °F 42.8 °F 30.2 in NE 3.8 mph 10.1 mph 98% 0 in
07:34 43.2 °F 42.8 °F 30.2 in North 8.7 mph 10.1 mph 98% 0 in
07:38 43 °F 42.8 °F 30.2 in North 4.3 mph 8.7 mph 98% 0 in
07:39 43 °F 42.8 °F 30.2 in North 0.9 mph 8.7 mph 98% 0 in
07:44 43 °F 42.8 °F 30.2 in North 2 mph 8.7 mph 98% 0 in
07:49 43.2 °F 42.8 °F 30.2 in North 3.8 mph 7.8 mph 98% 0 in
07:54 43.2 °F 42.8 °F 30.2 in NNW 3.8 mph 7.8 mph 98% 0 in
07:59 43.3 °F 42.8 °F 30.2 in Calm   7.8 mph 98% 0 in
08:04 43.3 °F 42.8 °F 30.2 in North 5.4 mph 8.5 mph 98% 0 in
08:05 43.5 °F 42.8 °F 30.2 in North 7.8 mph 8.5 mph 98% 0 in
08:10 43.5 °F 42.8 °F 30.2 in NNW 5.8 mph 8.5 mph 98% 0 in
08:11 43.5 °F 42.8 °F 30.2 in NNW 3.1 mph 8.5 mph 98% 0 in
08:16 43.5 °F 42.8 °F 30.2 in WSW 3.6 mph 8.1 mph 98% 0 in
08:17 43.5 °F 42.8 °F 30.2 in NNW 7.6 mph 8.1 mph 98% 0 in
08:19 43.5 °F 42.8 °F 30.2 in NNW 4.9 mph 7.6 mph 98% 0 in
08:24 43.5 °F 42.8 °F 30.2 in NW 6.5 mph 9.8 mph 98% 0 in
08:25 43.5 °F 42.8 °F 30.2 in North 5.6 mph 9.8 mph 98% 0 in
08:30 43.5 °F 42.8 °F 30.2 in NNE 4.7 mph 9.8 mph 98% 0 in
08:31 43.5 °F 42.8 °F 30.2 in NNW 7.6 mph 8.5 mph 98% 0 in
08:32 43.5 °F 42.8 °F 30.2 in West 2 mph 8.5 mph 98% 0 in
08:37 43.5 °F 42.8 °F 30.2 in North 2.7 mph 8.5 mph 98% 0 in
08:39 43.5 °F 42.8 °F 30.2 in NW 2 mph 7.8 mph 98% 0 in
08:44 43.5 °F 42.8 °F 30.2 in NNE 3.8 mph 7.8 mph 98% 0 in
08:45 43.5 °F 42.8 °F 30.2 in North 2.9 mph 7.8 mph 98% 0 in
08:47 43.5 °F 42.8 °F 30.2 in NW 3.4 mph 7.8 mph 98% 0 in
08:53 43.5 °F 42.8 °F 30.2 in North 4.3 mph 8.5 mph 98% 0 in
08:54 43.5 °F 42.8 °F 30.2 in North 5.6 mph 10.1 mph 98% 0 in
09:00 43.5 °F 42.8 °F 30.2 in NNE 6 mph 10.1 mph 98% 0 in
09:05 43.5 °F 42.8 °F 30.2 in NW 4.9 mph 8.5 mph 98% 0 in
09:07 43.5 °F 42.8 °F 30.2 in North 6.5 mph 8.5 mph 98% 0 in
09:12 43.5 °F 42.8 °F 30.2 in NW 8.1 mph 9.8 mph 98% 0 in
09:17 43.5 °F 42.8 °F 30.2 in North 5.4 mph 10.3 mph 98% 0 in
09:18 43.5 °F 42.8 °F 30.2 in NNE 4.9 mph 10.3 mph 98% 0 in
09:23 43.5 °F 42.8 °F 30.2 in North 3.8 mph 10.3 mph 98% 0 in
09:25 43.5 °F 42.8 °F 30.2 in NNW 7.6 mph 9.8 mph 98% 0 in
09:30 43.5 °F 42.8 °F 30.2 in WNW 6 mph 9.8 mph 98% 0 in
09:31 43.5 °F 42.8 °F 30.2 in North 6 mph 8.5 mph 98% 0 in
09:36 43.5 °F 42.8 °F 30.2 in NNE 5.4 mph 8.7 mph 98% 0 in
09:39 43.5 °F 42.8 °F 30.2 in NNW 6.5 mph 8.7 mph 98% 0 in
09:44 43.5 °F 42.8 °F 30.2 in NNW 6.3 mph 8.7 mph 98% 0.01 in
09:45 43.5 °F 42.8 °F 30.2 in NNW 4.7 mph 8.7 mph 98% 0.01 in
09:50 43.5 °F 42.8 °F 30.2 in NNE 1.1 mph 8.1 mph 98% 0.01 in
09:54 43.5 °F 42.8 °F 30.2 in NNW 5.4 mph 8.1 mph 98% 0.01 in
09:59 43.5 °F 42.8 °F 30.2 in North 5.8 mph 10.1 mph 98% 0.01 in
10:05 43.5 °F 42.8 °F 30.2 in NNW 3.1 mph 14.5 mph 98% 0.01 in
10:10 43.5 °F 42.8 °F 30.2 in NNW 7.8 mph 14.5 mph 98% 0.01 in
10:12 43.5 °F 42.8 °F 30.2 in NNW 6.7 mph 14.5 mph 98% 0.01 in
10:16 43.5 °F 42.8 °F 30.2 in NNW 8.1 mph 8.5 mph 98% 0.01 in
10:18 43.5 °F 42.8 °F 30.2 in NNW 5.6 mph 11 mph 98% 0.01 in
10:23 44.6 °F 44.6 °F 30.2 in NNW 5.6 mph 11 mph 98% 0.01 in
10:27 44.6 °F 44.6 °F 30.2 in North 6 mph 11 mph 98% 0.01 in
10:28 44.6 °F 44.6 °F 30.2 in NNE 4.9 mph 10.1 mph 98% 0.01 in
10:33 45.5 °F 46.4 °F 30.2 in North 4.3 mph 10.5 mph 98% 0.01 in
10:34 45.5 °F 46.4 °F 30.2 in NW 4.3 mph 10.5 mph 98% 0.01 in
10:39 45.9 °F 44.6 °F 30.2 in NNW 5.6 mph 9.4 mph 97% 0.01 in
10:42 45.9 °F 44.6 °F 30.3 in North 5.8 mph 9.4 mph 97% 0 in
10:46 46 °F 44.6 °F 30.3 in North 5.4 mph 9.4 mph 96% 0 in
10:50 46 °F 44.6 °F 30.3 in North 6 mph 10.3 mph 96% 0 in
10:53 46 °F 44.6 °F 30.3 in NNW 5.4 mph 10.3 mph 95% 0 in
10:58 46.4 °F 46.4 °F 30.3 in NNW 4.7 mph 9.8 mph 95% 0 in
11:03 46.4 °F 44.6 °F 30.3 in NE 6 mph 8.7 mph 94% 0 in
11:05 46.6 °F 44.6 °F 30.3 in NNE 6 mph 8.7 mph 94% 0 in
11:06 46.6 °F 44.6 °F 30.3 in NW 3.6 mph 8.7 mph 94% 0 in
11:11 46.6 °F 44.6 °F 30.3 in North 8.1 mph 10.3 mph 93% 0 in
11:14 46.6 °F 44.6 °F 30.3 in NNW 6.3 mph 10.3 mph 92% 0 in
11:17 46.6 °F 44.6 °F 30.3 in North 7.4 mph 10.3 mph 93% 0 in
11:21 46.6 °F 44.6 °F 30.3 in NNE 6.5 mph 10.1 mph 93% 0 in
11:26 46.9 °F 46.4 °F 30.3 in NNW 4.9 mph 10.1 mph 93% 0 in
11:27 46.9 °F 46.4 °F 30.3 in North 3.4 mph 8.5 mph 93% 0 in
11:32 47.1 °F 44.6 °F 30.3 in North 2.9 mph 7.8 mph 92% 0 in
11:37 47.1 °F 44.6 °F 30.3 in North 3.1 mph 9.2 mph 92% 0 in
11:39 47.3 °F 46.4 °F 30.3 in North 7.6 mph 9.2 mph 92% 0 in
11:43 47.3 °F 46.4 °F 30.2 in North 3.8 mph 9.2 mph 92% 0 in
11:47 47.3 °F 46.4 °F 30.2 in North 8.5 mph 9.6 mph 92% 0 in
11:52 47.3 °F 46.4 °F 30.2 in North 3.4 mph 9.6 mph 92% 0 in
11:56 47.3 °F 46.4 °F 30.2 in NNW 4.9 mph 9.6 mph 92% 0 in
12:01 48.2 °F 46.4 °F 30.2 in North 3.1 mph 8.1 mph 90% 0 in
12:03 48.2 °F 46.4 °F 30.2 in North 6.5 mph 7.8 mph 90% 0 in
12:04 48.2 °F 46.4 °F 30.2 in North 4.5 mph 7.8 mph 90% 0 in
12:09 48.2 °F 46.4 °F 30.2 in NE 6.5 mph 8.7 mph 89% 0 in
12:14 48.2 °F 46.4 °F 30.3 in North 6.9 mph 8.9 mph 89% 0 in
12:16 48.2 °F 46.4 °F 30.3 in NNW 5.4 mph 8.9 mph 89% 0 in
12:20 48.2 °F 46.4 °F 30.3 in NNE 9.2 mph 10.5 mph 89% 0 in
12:22 48.2 °F 46.4 °F 30.3 in North 5.6 mph 10.5 mph 89% 0 in
12:27 48.2 °F 46.4 °F 30.3 in NE 9.4 mph 10.5 mph 89% 0 in
12:32 48.2 °F 46.4 °F 30.3 in NNE 5.6 mph 9.8 mph 89% 0 in
12:34 48.2 °F 46.4 °F 30.3 in North 6.5 mph 9.8 mph 89% 0 in
12:39 48.2 °F 46.4 °F 30.3 in NNE 6.5 mph 9.8 mph 89% 0 in
12:40 48.2 °F 46.4 °F 30.3 in North 5.6 mph 8.1 mph 89% 0 in
12:42 48.2 °F 46.4 °F 30.3 in NNW 1.1 mph 8.1 mph 89% 0 in
12:47 48.2 °F 46.4 °F 30.3 in NNW 8.1 mph 8.7 mph 89% 0 in
12:48 48.2 °F 46.4 °F 30.3 in North 6.5 mph 8.7 mph 89% 0 in
12:53 48.2 °F 46.4 °F 30.3 in North 8.7 mph 10.5 mph 89% 0 in
12:54 48.2 °F 46.4 °F 30.3 in North 7.6 mph 10.5 mph 89% 0 in
12:58 48.2 °F 46.4 °F 30.3 in North 8.5 mph 11 mph 89% 0 in
13:02 48.2 °F 46.4 °F 30.3 in NNE 6.5 mph 11 mph 89% 0 in
13:05 48.2 °F 46.4 °F 30.3 in North 7.8 mph 11.4 mph 89% 0 in
13:08 48.2 °F 46.4 °F 30.3 in NE 7.6 mph 11.4 mph 89% 0 in
13:13 48.2 °F 46.4 °F 30.3 in NNE 7.2 mph 11.4 mph 89% 0 in
13:15 48.2 °F 46.4 °F 30.3 in NNE 7.8 mph 11.4 mph 89% 0 in
13:16 48.2 °F 46.4 °F 30.3 in North 7.6 mph 9.8 mph 89% 0 in
13:21 48.9 °F 44.6 °F 30.3 in NNW 3.8 mph 11 mph 83% 0 in
13:24 49.5 °F 44.6 °F 30.3 in North 5.4 mph 11 mph 83% 0 in
13:27 49.5 °F 44.6 °F 30.3 in North 5.6 mph 11 mph 83% 0 in
13:32 48.7 °F 44.6 °F 30.3 in North 6.5 mph 8.7 mph 83% 0 in
13:34 49.1 °F 44.6 °F 30.3 in North 5.4 mph 8.7 mph 83% 0 in
13:39 48.9 °F 44.6 °F 30.3 in NNE 6 mph 10.1 mph 83% 0 in
13:40 48.9 °F 44.6 °F 30.3 in NNE 7.4 mph 10.1 mph 83% 0 in
13:45 49.1 °F 44.6 °F 30.3 in WNW 4.3 mph 10.1 mph 83% 0 in
13:47 49.1 °F 44.6 °F 30.3 in NNW 13 mph 13 mph 83% 0 in
13:49 49.1 °F 44.6 °F 30.3 in North 9.8 mph 13 mph 83% 0 in
13:54 49.1 °F 44.6 °F 30.3 in North 6.9 mph 13 mph 83% 0 in
13:56 49.1 °F 44.6 °F 30.3 in North 3.1 mph 13 mph 81% 0 in
14:01 49.1 °F 44.6 °F 30.3 in NNW 7.8 mph 11.4 mph 81% 0 in
14:02 49.1 °F 44.6 °F 30.3 in North 3.6 mph 11.4 mph 81% 0 in
14:07 49.1 °F 44.6 °F 30.3 in North 9.8 mph 13.4 mph 81% 0 in
14:08 49.1 °F 44.6 °F 30.3 in NNE 6 mph 13.4 mph 81% 0 in
14:13 48.4 °F 42.8 °F 30.3 in NW 6.5 mph 13.4 mph 80% 0 in
14:15 48.4 °F 42.8 °F 30.3 in North 8.1 mph 12.5 mph 80% 0 in
14:16 48.4 °F 42.8 °F 30.3 in NNW 6.3 mph 12.5 mph 80% 0 in
14:21 48.6 °F 42.8 °F 30.3 in NNE 9.8 mph 10.5 mph 80% 0 in
14:26 48.2 °F 42.8 °F 30.3 in North 8.5 mph 10.7 mph 80% 0 in
14:27 48.2 °F 42.8 °F 30.3 in Calm   10.7 mph 80% 0 in
14:32 48.2 °F 42.8 °F 30.3 in North 3.1 mph 10.7 mph 80% 0 in
14:33 48.2 °F 42.8 °F 30.3 in North 4.9 mph 10.3 mph 80% 0 in
14:35 48.6 °F 42.8 °F 30.3 in NNW 6 mph 8.5 mph 81% 0 in
14:39 48.6 °F 42.8 °F 30.3 in NNE 6.3 mph 8.5 mph 81% 0 in
14:41 48.7 °F 44.6 °F 30.3 in NNW 5.6 mph 8.1 mph 82% 0 in
14:45 48.7 °F 44.6 °F 30.3 in NNW 3.4 mph 8.7 mph 82% 0 in
14:50 48.7 °F 44.6 °F 30.3 in NNW 9.6 mph 9.6 mph 82% 0 in
14:51 48.7 °F 44.6 °F 30.3 in NNW 3.6 mph 9.6 mph 82% 0 in
14:55 48.7 °F 44.6 °F 30.3 in North 4.3 mph 9.8 mph 82% 0 in
14:57 48.7 °F 44.6 °F 30.3 in NNW 3.8 mph 9.8 mph 82% 0 in
15:01 48.7 °F 44.6 °F 30.3 in NE 6.5 mph 9.8 mph 82% 0 in
15:06 48.7 °F 44.6 °F 30.3 in North 3.6 mph 8.9 mph 82% 0 in
15:08 48.7 °F 44.6 °F 30.3 in North 4.9 mph 8.9 mph 82% 0 in
15:13 48.7 °F 44.6 °F 30.3 in North 5.4 mph 8.7 mph 82% 0 in
15:17 49.1 °F 44.6 °F 30.3 in North 5.6 mph 8.7 mph 82% 0 in
15:19 49.1 °F 44.6 °F 30.3 in NNE 5.6 mph 8.1 mph 82% 0 in
15:24 49.1 °F 44.6 °F 30.3 in North 7.2 mph 8.1 mph 82% 0 in
15:26 49.1 °F 44.6 °F 30.3 in North 9.2 mph 9.2 mph 82% 0 in
15:31 49.1 °F 44.6 °F 30.3 in North 4 mph 10.5 mph 82% 0 in
15:33 49.1 °F 44.6 °F 30.3 in North 3.1 mph 10.5 mph 82% 0 in
15:35 49.1 °F 44.6 °F 30.3 in North 8.1 mph 10.5 mph 82% 0 in
15:40 49.1 °F 44.6 °F 30.3 in North 3.8 mph 8.7 mph 82% 0 in
15:45 49.1 °F 44.6 °F 30.3 in NNW 6.5 mph 8.7 mph 82% 0 in
15:50 47.7 °F 42.8 °F 30.3 in NNW 5.4 mph 8.7 mph 82% 0 in
15:52 47.7 °F 42.8 °F 30.3 in North 5.6 mph 8.7 mph 82% 0 in
15:57 47.3 °F 42.8 °F 30.3 in North 2.7 mph 6.5 mph 82% 0 in
15:58 47.1 °F 42.8 °F 30.3 in NNE 3.1 mph 6.5 mph 82% 0 in
16:02 47.1 °F 42.8 °F 30.3 in NNW 4.7 mph 5.6 mph 83% 0 in
16:07 46.8 °F 42.8 °F 30.3 in North 4.9 mph 5.8 mph 83% 0 in
16:08 46.8 °F 42.8 °F 30.3 in North 1.6 mph 5.8 mph 83% 0 in
16:13 46.4 °F 42.8 °F 30.3 in NNW 3.4 mph 5.8 mph 84% 0 in
16:14 46.2 °F 42.8 °F 30.3 in WNW 2.9 mph 5.8 mph 84% 0 in
16:19 46 °F 42.8 °F 30.3 in Calm   5.4 mph 85% 0 in
16:20 46 °F 42.8 °F 30.3 in NE 5.6 mph 5.6 mph 85% 0 in
16:21 46 °F 42.8 °F 30.3 in NNW 3.4 mph 5.6 mph 85% 0 in
16:26 45.9 °F 42.8 °F 30.3 in NNW 2.5 mph 6 mph 85% 0 in
16:27 45.9 °F 42.8 °F 30.3 in NNW 4.3 mph 6 mph 85% 0 in
16:32 45.5 °F 42.8 °F 30.3 in NNW 3.8 mph 6.7 mph 86% 0 in
16:36 45.3 °F 41 °F 30.3 in Calm   6.7 mph 86% 0 in
16:42 45.1 °F 41 °F 30.3 in NNW 2.9 mph 4.9 mph 86% 0 in
16:47 44.8 °F 41 °F 30.3 in NNW 3.8 mph 7.4 mph 87% 0 in
16:50 44.8 °F 41 °F 30.3 in NNE 4 mph 7.4 mph 88% 0 in
16:51 44.8 °F 41 °F 30.3 in NNE 4 mph 7.4 mph 88% 0 in
16:56 44.6 °F 41 °F 30.4 in Calm   5.8 mph 88% 0 in
17:00 44.2 °F 41 °F 30.4 in NNW 2.9 mph 6 mph 89% 0 in
17:01 44.2 °F 41 °F 30.4 in Calm   6 mph 89% 0 in
17:06 44.1 °F 41 °F 30.4 in NNW 2.9 mph 6 mph 90% 0 in
17:09 44.1 °F 41 °F 30.4 in Calm   6 mph 90% 0 in
17:12 43.7 °F 41 °F 30.4 in NNW 3.6 mph 5.8 mph 90% 0 in
17:16 43.7 °F 41 °F 30.4 in NW 1.6 mph 4.3 mph 90% 0 in
17:18 43.7 °F 41 °F 30.4 in Calm   4 mph 90% 0 in
17:23 43.3 °F 41 °F 30.4 in Calm   3.8 mph 91% 0 in
17:26 43 °F 41 °F 30.4 in Calm   3.8 mph 90% 0 in
17:28 42.8 °F 41 °F 30.4 in Calm   3.8 mph 90% 0 in
17:33 42.6 °F 41 °F 30.4 in Calm   3.1 mph 91% 0 in
17:34 42.6 °F 41 °F 30.4 in Calm   3.1 mph 91% 0 in
17:39 42.4 °F 41 °F 30.4 in Calm   3.1 mph 91% 0 in
17:42 42.3 °F 41 °F 30.4 in Calm   3.1 mph 91% 0 in
17:44 42.1 °F 41 °F 30.4 in Calm   3.1 mph 92% 0 in
17:48 42.3 °F 41 °F 30.4 in Calm   5.8 mph 93% 0 in
17:49 42.3 °F 41 °F 30.4 in NNW 3.4 mph 5.8 mph 93% 0 in
17:54 42.1 °F 41 °F 30.4 in NW 2 mph 5.8 mph 94% 0 in
17:59 41.9 °F 41 °F 30.4 in Calm   4 mph 94% 0 in
18:00 41.9 °F 41 °F 30.4 in Calm   2.2 mph 94% 0 in
18:02 41.9 °F 41 °F 30.4 in Calm   2.5 mph 94% 0 in
18:06 41.7 °F 41 °F 30.4 in Calm   2.9 mph 94% 0 in
18:11 41.5 °F 41 °F 30.4 in North 2.7 mph 4 mph 94% 0 in
18:16 41.7 °F 41 °F 30.4 in NNW 2.9 mph 4 mph 95% 0 in
18:19 41.7 °F 41 °F 30.4 in NNW 0.9 mph 4.3 mph 95% 0 in
18:24 42.1 °F 42.8 °F 30.4 in North 3.4 mph 5.8 mph 97% 0 in
18:28 42.3 °F 42.8 °F 30.4 in North 4.9 mph 5.8 mph 97% 0 in
18:33 42.3 °F 42.8 °F 30.4 in NNW 4.7 mph 5.8 mph 97% 0 in
18:34 42.3 °F 42.8 °F 30.4 in NNW 4.7 mph 5.8 mph 97% 0 in
18:39 42.3 °F 42.8 °F 30.4 in NE 2.5 mph 5.8 mph 97% 0 in
18:43 42.3 °F 42.8 °F 30.4 in Calm   5.8 mph 97% 0 in
18:46 42.1 °F 42.8 °F 30.4 in Calm   5.4 mph 97% 0 in
18:51 42.1 °F 42.8 °F 30.4 in Calm   5.4 mph 97% 0 in
18:52 42.1 °F 42.8 °F 30.4 in Calm   5.4 mph 97% 0 in
18:54 41.9 °F 42.8 °F 30.4 in NNW 1.1 mph 5.4 mph 96% 0 in
18:58 41.7 °F 41 °F 30.4 in NNW 1.1 mph 4.3 mph 96% 0 in
19:03 41.7 °F 41 °F 30.4 in Calm   4.3 mph 96% 0 in
19:04 41.7 °F 41 °F 30.4 in Calm   4.3 mph 96% 0 in
19:09 41.7 °F 41 °F 30.4 in NNW 2.9 mph 4.9 mph 96% 0 in
19:10 41.7 °F 41 °F 30.4 in Calm   4.9 mph 96% 0 in
19:15 41.7 °F 41 °F 30.4 in Calm   4.9 mph 96% 0 in
19:20 41.7 °F 41 °F 30.4 in NNW 1.3 mph 4 mph 96% 0 in
19:21 41.5 °F 41 °F 30.4 in Calm   4 mph 97% 0 in
19:26 41.5 °F 41 °F 30.4 in Calm   4 mph 97% 0 in
19:27 41.5 °F 41 °F 30.4 in NNW 3.4 mph 4 mph 97% 0 in
19:28 41.5 °F 41 °F 30.4 in North 2.7 mph 4 mph 97% 0 in
19:33 41.5 °F 41 °F 30.4 in WNW 0.9 mph 5.6 mph 97% 0 in
19:36 41.5 °F 41 °F 30.4 in NNW 1.6 mph 5.6 mph 97% 0 in
19:41 41.5 °F 41 °F 30.4 in WNW 6.3 mph 6.3 mph 97% 0 in
19:46 41.7 °F 42.8 °F 30.4 in North 2.7 mph 6.5 mph 98% 0 in
19:51 41.7 °F 42.8 °F 30.4 in NW 2.9 mph 6.5 mph 98% 0 in
19:52 41.7 °F 42.8 °F 30.4 in NNW 0.9 mph 6.5 mph 98% 0 in
19:55 41.5 °F 42.8 °F 30.4 in North 3.8 mph 6 mph 98% 0 in
19:57 41.4 °F 41 °F 30.4 in NNW 6.3 mph 6.3 mph 98% 0 in
20:02 41.5 °F 42.8 °F 30.4 in NNW 3.1 mph 6.3 mph 98% 0 in
20:05 41.5 °F 42.8 °F 30.4 in NW 2.5 mph 6.3 mph 98% 0 in
20:10 41.4 °F 41 °F 30.4 in North 2.5 mph 6 mph 98% 0 in
20:11 41.4 °F 41 °F 30.4 in North 3.1 mph 6 mph 98% 0 in
20:13 41.2 °F 41 °F 30.4 in Calm   5.6 mph 98% 0 in
20:17 41 °F 41 °F 30.4 in Calm   5.6 mph 97% 0 in
20:23 40.8 °F 41 °F 30.4 in Calm   3.6 mph 98% 0 in
20:25 40.8 °F 41 °F 30.4 in North 1.6 mph 3.6 mph 98% 0 in
20:30 40.6 °F 41 °F 30.4 in Calm   4.3 mph 98% 0 in
20:32 40.6 °F 41 °F 30.4 in NNW 0.9 mph 4.3 mph 98% 0 in
20:37 40.6 °F 41 °F 30.4 in Calm   3.8 mph 98% 0 in
20:38 40.6 °F 41 °F 30.4 in Calm   2.9 mph 98% 0 in
20:41 40.6 °F 41 °F 30.4 in NNW 1.6 mph 3.1 mph 98% 0 in
20:44 40.6 °F 41 °F 30.4 in Calm   3.1 mph 98% 0 in
20:49 40.6 °F 41 °F 30.4 in North 2.7 mph 4.3 mph 98% 0 in
20:52 40.6 °F 41 °F 30.4 in North 2.7 mph 4.3 mph 98% 0 in
20:55 40.6 °F 41 °F 30.4 in North 1.6 mph 4.3 mph 98% 0 in
20:58 40.6 °F 41 °F 30.4 in NNW 2.9 mph 4.3 mph 98% 0 in
21:02 40.6 °F 41 °F 30.4 in NNW 3.4 mph 5.6 mph 98% 0 in
21:03 40.6 °F 41 °F 30.4 in NW 4 mph 5.6 mph 98% 0 in
21:08 40.5 °F 41 °F 30.4 in Calm   5.6 mph 98% 0 in
21:09 40.5 °F 41 °F 30.4 in NNW 2.9 mph 5.6 mph 98% 0 in
21:13 40.5 °F 41 °F 30.4 in Calm   5.6 mph 98% 0 in
21:14 40.5 °F 41 °F 30.4 in Calm   5.6 mph 98% 0 in
21:19 40.5 °F 41 °F 30.4 in WNW 2 mph 4.7 mph 98% 0 in
21:20 40.5 °F 41 °F 30.4 in NNW 3.1 mph 4.7 mph 98% 0 in
21:25 40.5 °F 41 °F 30.4 in Calm   4.3 mph 98% 0 in
21:27 40.5 °F 41 °F 30.4 in Calm   4.3 mph 98% 0 in
21:28 40.5 °F 41 °F 30.4 in NNW 1.3 mph 4.3 mph 98% 0 in
21:33 40.5 °F 41 °F 30.4 in NW 2.5 mph 4 mph 98% 0 in
21:34 40.5 °F 41 °F 30.4 in WNW 2.9 mph 4 mph 98% 0 in
21:39 40.5 °F 41 °F 30.4 in NNW 2 mph 3.8 mph 98% 0 in
21:41 40.5 °F 41 °F 30.4 in WNW 5.6 mph 5.6 mph 98% 0 in
21:46 40.5 °F 41 °F 30.4 in WNW 3.6 mph 5.6 mph 98% 0 in
21:47 40.5 °F 41 °F 30.4 in NNW 2.5 mph 5.6 mph 98% 0 in
21:52 40.6 °F 41 °F 30.4 in NW 0.9 mph 4.3 mph 98% 0 in
21:54 40.6 °F 41 °F 30.4 in WNW 4 mph 4.7 mph 98% 0 in
22:04 40.8 °F 41 °F 30.4 in NNW 4.3 mph 5.6 mph 98% 0 in
22:09 41 °F 41 °F 30.4 in NW 3.1 mph 5.6 mph 98% 0 in
22:11 40.8 °F 41 °F 30.4 in Calm   7.2 mph 98% 0 in
22:14 40.8 °F 41 °F 30.4 in NNW 2.7 mph 7.2 mph 98% 0 in
22:16 40.8 °F 41 °F 30.4 in Calm   7.2 mph 98% 0 in
22:20 40.6 °F 41 °F 30.4 in Calm   4.3 mph 98% 0 in
22:23 40.6 °F 41 °F 30.4 in Calm   4 mph 98% 0 in
22:28 40.5 °F 41 °F 30.4 in Calm   4 mph 98% 0 in
22:33 40.5 °F 41 °F 30.4 in Calm   2.9 mph 98% 0 in
22:38 40.3 °F 41 °F 30.4 in NNW 2.9 mph 3.4 mph 98% 0 in
22:41 40.3 °F 41 °F 30.4 in NNE 1.3 mph 4.3 mph 98% 0 in
22:46 40.3 °F 41 °F 30.4 in WNW 2.9 mph 4.3 mph 98% 0 in
22:51 40.3 °F 41 °F 30.4 in NNW 2.5 mph 4.9 mph 98% 0 in
22:53 40.3 °F 41 °F 30.4 in WNW 2.9 mph 4.9 mph 98% 0 in
22:58 40.5 °F 41 °F 30.4 in North 3.4 mph 5.4 mph 98% 0 in
23:04 40.3 °F 41 °F 30.4 in Calm   5.4 mph 98% 0 in
23:09 40.3 °F 41 °F 30.4 in NNW 1.6 mph 4.3 mph 98% 0 in
23:11 40.3 °F 41 °F 30.4 in WNW 2.7 mph 4.3 mph 98% 0 in
23:12 40.3 °F 41 °F 30.4 in North 1.3 mph 4.3 mph 98% 0 in
23:17 40.3 °F 41 °F 30.4 in Calm   4 mph 98% 0 in
23:20 40.1 °F 41 °F 30.4 in WNW 2.5 mph 3.6 mph 98% 0 in
23:26 40.1 °F 41 °F 30.4 in Calm   3.8 mph 98% 0 in
23:28 40.1 °F 41 °F 30.4 in Calm   3.8 mph 98% 0 in
23:31 40.1 °F 41 °F 30.4 in Calm   3.8 mph 98% 0 in
23:35 39.9 °F 39.2 °F 30.4 in Calm   3.1 mph 98% 0 in
23:40 38.7 °F 39.2 °F 30.4 in Calm   3.1 mph 98% 0 in
23:41 38.7 °F 39.2 °F 30.4 in Calm   3.1 mph 98% 0 in
23:46 37.8 °F 37.4 °F 30.4 in Calm     98% 0 in
23:49 37.4 °F 37.4 °F 30.4 in Calm     97% 0 in
23:54 36.9 °F 37.4 °F 30.4 in Calm   2.5 mph 97% 0 in
23:57 36.7 °F 37.4 °F 30.4 in Calm   2.5 mph 97% 0 in
Données Historique de Météo Turbie

Mise a jour : 26/05/2018 15:54:13
Généré par Cumulus 1.9.4 (1099)